Regional Weather Roundup
Issued by NWS

Home | Current Version | Previous Version | Graphics & Text | Print | Product List | Glossary On
Versions: 1 2 3 4 5 6 7 8 9 10 11 12 13 14 15 16 17 18 19 20 21 22 23 24 25 26 27 28 29 30 31 32 33 34 35 36 37 38 39 40 41 42 43 44 45 46 47 48 49 50
000
ASUS44 KMEG 190010
RWRTN
TENNESSEE HOURLY STATE WEATHER ROUNDUP
NATIONAL WEATHER SERVICE MEMPHIS TN
600 PM CST SAT NOV 18 2017

TNZ002-004-019-021-049-052-054-088>092-190100-
WEST TENNESSEE

CITY           SKY/WX    TMP DP  RH WIND       PRES   REMARKS
MEMPHIS INTL   CLOUDY    53  40  61 NW24G32   29.89R
NWS MEMPHIS      N/A     53 N/A N/A MISG        N/A
JACKSON        CLOUDY    51  41  68 NW24G45   29.83R
DYERSBURG      CLOUDY    50  39  66 NW12G25   29.88R
COVINGTON      CLOUDY    52  41  66 N21G30    29.88R
UNION CITY     CLOUDY    46  39  76 NW20G32   29.84R
BOLIVAR        CLOUDY    52  41  66 W15G36    29.82R
HUNTINGDON     CLOUDY    48  43  81 NW12G24   29.78R
LEXINGTON      CLOUDY    50  43  76 NW15G24   29.77R
SELMER         CLOUDY    52  43  71 NW16G30   29.77R
SAVANNAH       CLOUDY    54  45  71 NW16G30   29.76R
$$

TNZ008-025-027-028-033-062-065-066-190100-
NORTH MIDDLE TENNESSEE

CITY           SKY/WX    TMP DP  RH WIND       PRES   REMARKS
NASHVILLE      CLOUDY    53  48  83 NW23G38   29.65R
PORTLAND       CLOUDY    50  46  87 NW18G29   29.62R
CLARKSVILLE    CLOUDY    47  40  76 NW30G43   29.71R
SMYRNA         CLOUDY    55  52  88 NW28G36   29.63R
COOKEVILLE     CLOUDY    64  61  88 S15G30    29.45F
GALLATIN       CLOUDY    54  50  87 W15G33    29.63R
CROSSVILLE     LGT RAIN  61  58  90 S13G23    29.53F
$$

TNZ061-075-076-078-094-096-097-190100-
SOUTH MIDDLE TENNESSEE

CITY           SKY/WX    TMP DP  RH WIND       PRES   REMARKS
FAYETTEVILLE   CLOUDY    68  63  83 SW16G29   29.54S
TULLAHOMA      CLOUDY    64  63  94 NW30G41   29.58R FOG
WINCHESTER     MOCLDY    70  61  73 S14       29.55F
MCMINNVILLE    CLOUDY    64  61  88 NW21G33   29.56R HAZE
COLUMBIA       CLOUDY    57  50  77 W13G29    29.65R
SHELBYVILLE    CLOUDY    61  59  94 W18G25    29.59R FOG
$$

TNZ017-018-042-046-047-190100-
NORTHEAST TENNESSEE

CITY           SKY/WX    TMP DP  RH WIND       PRES   REMARKS
TRI CITIES     CLOUDY    64  51  62 S13       29.57F
ELIZABETHTON     N/A     64  48  55 SW8       29.60F
$$

TNZ012-013-036-069-073-074-190100-
CENTRAL EAST TENNESSEE

CITY           SKY/WX    TMP DP  RH WIND       PRES   REMARKS
KNOXVILLE      LGT RAIN  65  59  81 SW25G32   29.54F
OAK RIDGE      LGT RAIN  65  60  84 MISG      29.55F
DOWNTOWN KNOXV CLOUDY    68  57  68 SW14G26   29.54F
GATLINBURG     CLOUDY    72  54  53 SW16G32   29.55F
MORRISTOWN     CLOUDY    66  55  68 SW18G29   29.55F
JACKSBORO      CLOUDY    63  59  88 SW16G25   29.54F
$$

TNZ083-085-099-190100-
SOUTHEAST TENNESSEE

CITY           SKY/WX    TMP DP  RH WIND       PRES   REMARKS
CHATTANOOGA    MOCLDY    67  58  72 S15G26    29.58F
$$

SKY/WX REPORTED AS FAIR MEANS FEW OR NO CLOUDS BELOW
12 THOUSAND FEET.





USA.gov is the U.S. government's official web portal to all federal, state and local government web resources and services.